This is the latest recevied weather packets stored in our database for station/object KE8DDT-7. If no packets are shown the sender has not sent any weather packets the latest 10 day(s).
| Time | Temp. | Humidity | Pressure | Rain* | Wind** | Luminosity | Snow |
|---|---|---|---|---|---|---|---|
| 1777817646 | 12.78° C | 44% | 1005.4 hPa | 0 mm | - | 214 W/m² | - |
| 1777817346 | 12.78° C | 47% | 1005.3 hPa | 0 mm | - | 726 W/m² | - |
| 1777817046 | 12.22° C | 47% | 1005.4 hPa | 0 mm | - | 649 W/m² | - |
| 1777816446 | 12.22° C | 47% | 1005.5 hPa | 0 mm | - | 601 W/m² | - |
| 1777816146 | 12.22° C | 46% | 1005.4 hPa | 0 mm | - | 584 W/m² | - |
| 1777815846 | 11.67° C | 47% | 1005.5 hPa | 0 mm | - | 566 W/m² | - |
| 1777815546 | 11.67° C | 49% | 1005.5 hPa | 0 mm | - | 543 W/m² | - |
| 1777815246 | 11.11° C | 49% | 1005.5 hPa | 0 mm | - | 538 W/m² | - |
| 1777814646 | 10.56° C | 50% | 1005.6 hPa | 0 mm | - | 499 W/m² | - |
| 1777814346 | 10.56° C | 50% | 1005.5 hPa | 0 mm | - | 490 W/m² | - |
| 1777814046 | 10° C | 51% | 1005.6 hPa | 0 mm | - | 462 W/m² | - |
| 1777813746 | 10° C | 53% | 1005.6 hPa | 0 mm | - | 459 W/m² | - |
| 1777813446 | 9.44° C | 53% | 1005.6 hPa | 0 mm | - | 443 W/m² | - |
| 1777813147 | 9.44° C | 54% | 1005.6 hPa | 0 mm | - | 424 W/m² | - |
| 1777812846 | 8.89° C | 55% | 1005.7 hPa | 0 mm | - | 399 W/m² | - |
| 1777812546 | 8.33° C | 57% | 1005.7 hPa | 0 mm | - | 392 W/m² | - |
| 1777812153 | 7.78° C | 59% | 1005.7 hPa | 0 mm | - | 373 W/m² | - |
| 1777811853 | 7.78° C | 61% | 1005.7 hPa | 0 mm | - | 353 W/m² | - |
| 1777811553 | 7.22° C | 64% | 1005.7 hPa | 0 mm | - | 338 W/m² | - |
| 1777811253 | 6.67° C | 63% | 1005.7 hPa | 0 mm | - | 325 W/m² | - |
| 1777810953 | 6.11° C | 63% | 1005.7 hPa | 0 mm | - | 306 W/m² | - |
| 1777810653 | 6.11° C | 65% | 1005.7 hPa | 0 mm | - | 279 W/m² | - |
| 1777810353 | 5.56° C | 65% | 1005.8 hPa | 0 mm | - | 230 W/m² | - |
| 1777810053 | 5° C | 67% | 1005.7 hPa | 0 mm | - | 130 W/m² | - |
| 1777809753 | 4.44° C | 68% | 1005.7 hPa | 0 mm | - | 65 W/m² | - |
* Rain latest hour (hover to see other rain measurements)
** Current wind speed in m/s (hover to see current wind gust speed)